Regional Weather Roundup
Issued by NWS

Home | Current Version | Previous Version | Text Only | Print | Product List | Glossary Off
Versions: 1 2 3 4 5 6 7 8 9 10 11 12 13 14 15 16 17 18 19 20 21 22 23 24 25 26 27 28 29 30 31 32 33 34 35 36 37 38 39 40 41 42 43 44 45 46 47 48 49 50

794
ASUS43 KDTX 181401
RWRMI
MICHIGAN HOURLY REGIONAL WEATHER ROUNDUP
NATIONAL WEATHER SERVICE DETROIT/PONTIAC MI
900 AM EST MON DEC 18 2017

NOTE: "FAIR" INDICATES FEW OR NO CLOUDS BELOW 12,000 FEET WITH NO
SIGNIFICANT WEATHER AND/OR OBSTRUCTION TO VISIBILITY.

MIZ047>049-052>055-059>063-066>070-074>076-081>083-181500-
SOUTHEAST LOWER MICHIGAN

CITY           SKY/WX    TMP DP  RH WIND       PRES   REMARKS
ALMA           LGT RAIN  34  34 100 CALM      29.89F VSB 3/4
ANN ARBOR      CLOUDY    37  36  96 S8        29.94F FOG     WCI  31
BAD AXE        LGT SNOW  32  32  99 SW5       29.90F WCI  28
CARO           MIX PCPN  33  33 100 CALM      29.90S VSB 1/2
DETROIT CITY   LGT RAIN  37  35  92 SW8       29.96S FOG     WCI  31
DETROIT        LGT RAIN  38  35  89 S9        29.96F FOG     WCI  31
FLINT          MIX PCPN  37  36  96 SW6       29.91F FOG     WCI  32
GROSSE ILE     CLOUDY    35  33  94 S6        29.96S FOG     WCI  29
HILLSDALE      CLOUDY    36  36 100 S8        29.93S FOG     WCI  29
HOWELL         CLOUDY    37  37  99 SW7       29.91S FOG     WCI  32

CITY           SKY/WX    TMP DP  RH WIND       PRES   REMARKS
JACKSON        CLOUDY    39  36  89 S12G22    29.93S FOG     WCI  32
LAMBERTVILLE   CLOUDY    37  36  93 SW8       29.98S FOG     WCI  31
LANSING        LGT RAIN  37  37 100 S9        29.91S FOG     WCI  30
LAPEER         RAIN      36  36 100 SW6       29.91F WCI  31
MASON          RAIN      38  35  89 SW5       29.91S VSB 1   WCI  34
MONROE         CLOUDY    37  35  90 SW7       29.96S FOG     WCI  32
PONTIAC        LGT RAIN  36  36 100 S7        29.91S FOG     WCI  30
PORT HOPE        N/A     32  30  92 SW3       29.88S
PORT HURON     LGT RAIN  36  32  87 S3        29.94S VSB 1
TRI CITIES     LGT RAIN  33  33 100 CALM      29.89F VSB 1/2
MIDLAND        MIX PCPN  30  29  96 CALM      29.89S VSB 3/4
TROY           CLOUDY    37  36  93 SW7       29.95S FOG     WCI  32
SAGINAW HB     MIX PCPN  34  32  93 S5        29.89F VSB 3/4 WCI  30
$$
MIZ043>046-050>051-056>058-064>065-071>073-077>080-181500-
SOUTHWEST LOWER MICHIGAN

CITY           SKY/WX    TMP DP  RH WIND       PRES   REMARKS
BATTLE CREEK   LGT RAIN  38  37  97 SW10      29.91F FOG     WCI  31
BENTON HARBOR  CLOUDY    41  39  93 SW16      29.93S FOG
BIG RAPIDS     LGT SNOW  30  29  96 CALM      29.85F VSB 3/4
COLDWATER      CLOUDY    38  38 100 SW8       29.94S FOG     WCI  33
HOLLAND        LGT RAIN  39  38  96 W14       29.90S FOG     WCI  31
GRAND RAPIDS   DRZL/FOG  37  37 100 SW12      29.88F VSB 1   WCI  29
IONIA          DRIZZLE   37  37  99 S12       29.87F WCI  29
KALAMAZOO      LGT RAIN  39  37  92 SW12      29.92F FOG     WCI  32
LUDINGTON      MIX PCPN  33  32  96 W5        29.85F WCI  29
MARSHALL       RAIN      38  37  98 SW12G18   29.92S WCI  30
MOUNT PLEASANT MIX PCPN  31  30  96 CALM      29.87F VSB 1/2
MUSKEGON       LGT RAIN  37  34  89 SW5       29.88S FOG     WCI  33
SOUTH HAVEN    CLOUDY    42  41  93 SW14G21   29.92S FOG
$$
MIZ016>042-181500-
NORTHERN LOWER MICHIGAN

CITY           SKY/WX    TMP DP  RH WIND       PRES   REMARKS
ALPENA         CLOUDY    28  27  96 W3        29.87S FOG
BEAVER ISLAND  CLOUDY    33  32  96 CALM      29.82F FOG
BELLAIRE       FOG       30  30 100 CALM      29.85F VSB 1/4
CADILLAC       FOG       28  28  99 S3        29.82F VSB 3/4
CHARLEVOIX     FOG       30  30 100 SE5       29.86F VSB 1   WCI  25
FRANKFORT      CLOUDY    34  34 100 W3        29.83F FOG
GAYLORD        FOG       27  25  92 CALM      29.82F VSB<1/4
GRAYLING       SNOW      27  25  95 CALM      29.84F VSB 1/4
HARBOR SPRINGS CLOUDY    29  28  99 SE3       29.83F FOG
HOUGHTON LAKE  CLOUDY    28  26  92 S5        29.85F FOG     WCI  23
MANISTEE       FOG       31  30  96 S3        29.84F VSB 3/4
OSCODA         CLOUDY    28  27  96 SW3       29.88S FOG
PELLSTON       CLOUDY    29  29 100 SE3       29.84F FOG
ROGERS CITY    CLOUDY    28  26  94 SW6       29.86F FOG     WCI  21
TRAVERSE CITY  FOG       31  30  96 VRB3      29.84F VSB 1/4
$$
MIZ007>008-015-181500-
EASTERN UPPER MICHIGAN

CITY           SKY/WX    TMP DP  RH WIND       PRES   REMARKS
MACKINAC ISLAN FOG       31  31 100 S3        29.82F VSB 1/2
NEWBERRY       CLOUDY    26  25  97 SE5       29.79F FOG     WCI  20
MUNISING         N/A     25  25 100 S5        29.78F WCI  19
$$
MIZ004>006-011>014-085-181500-
CENTRAL UPPER MICHIGAN

CITY           SKY/WX    TMP DP  RH WIND       PRES   REMARKS
MANISTIQUE     CLOUDY    29  24  81 SW3       29.80F HAZE
MENOMINEE      CLOUDY    28  26  92 SW6       29.84S FOG     WCI  22
SAWYER-GWINN   CLOUDY    23  23 100 SW6       29.77S FOG     WCI  16
$$
MIZ001>003-009>011-084-181500-
WESTERN UPPER MICHIGAN

CITY           SKY/WX    TMP DP  RH WIND       PRES   REMARKS
HOUGHTON       CLOUDY    25  21  85 SW9       29.72F WCI  15
COPPER HARBOR    N/A     28  24  85 VRB3      29.74F
IRONWOOD       CLOUDY    27  24  89 S8        29.73F WCI  19
$$

ABBREVIATIONS USED IN REMARKS
   TC - TEMPERATURE IN CELSIUS
  WCI - WIND CHILL INDEX
   HX - HEAT INDEX
  VSB - VISIBILITY





USA.gov is the U.S. government's official web portal to all federal, state and local government web resources and services.